• en France
  • Liste des pays
  • À 7 jours
  • Température de l'eau
  • Carte satellitaire
  • Carte météo
  • Widgets météo
  • user-avatar
    Se connecter

    Météo par heure à Urchiab

    Ce jour, 22 Août, Mercredi

    Heure Température Précipitation Vent Pression Humidité
    00:00 +14°C° 0 mm 3 m/s 657 mmHg 73%
    01:00 +14°C° 0 mm 3 m/s 657 mmHg 69%
    02:00 +15°C° 0 mm 2 m/s 657 mmHg 66%
    03:00 +15°C° 0 mm 2 m/s 657 mmHg 63%
    04:00 +15°C° 0 mm 2 m/s 657 mmHg 61%
    05:00 +15°C° 0 mm 2 m/s 657 mmHg 60%
    06:00 +16°C° 0 mm 2 m/s 657 mmHg 58%
    07:00 +18°C° 0 mm 2 m/s 658 mmHg 55%
    08:00 +20°C° 0 mm 2 m/s 658 mmHg 51%
    09:00 +23°C° 0 mm 2 m/s 659 mmHg 48%
    10:00 +24°C° 0 mm 2 m/s 659 mmHg 47%
    11:00 +24°C° 0 mm 2 m/s 659 mmHg 47%
    12:00 +25°C° 0 mm 2 m/s 659 mmHg 47%
    13:00 +25°C° 0,2 mm 3 m/s 658 mmHg 49%
    14:00 +25°C° 0,2 mm 3 m/s 658 mmHg 51%
    15:00 +25°C° 0,2 mm 3 m/s 658 mmHg 53%
    16:00 +24°C° 0,5 mm 2 m/s 658 mmHg 59%
    17:00 +23°C° 0,5 mm 2 m/s 658 mmHg 64%
    18:00 +22°C° 0,5 mm 1 m/s 658 mmHg 70%
    19:00 +21°C° 0,3 mm 1 m/s 658 mmHg 73%
    20:00 +19°C° 0,3 mm 2 m/s 658 mmHg 75%
    21:00 +18°C° 0,3 mm 2 m/s 658 mmHg 78%
    22:00 +17°C° 0,3 mm 2 m/s 658 mmHg 78%
    23:00 +17°C° 0,3 mm 2 m/s 658 mmHg 78%

    Demain, 23 Août, Jeudi

    Heure Température Précipitation Vent Pression Humidité
    00:00 +17°C° 0,3 mm 2 m/s 658 mmHg 78%
    01:00 +16°C° 0,1 mm 2 m/s 657 mmHg 78%
    02:00 +16°C° 0,1 mm 2 m/s 657 mmHg 78%
    03:00 +16°C° 0,1 mm 2 m/s 657 mmHg 77%
    04:00 +16°C° 0 mm 2 m/s 657 mmHg 76%
    05:00 +16°C° 0 mm 2 m/s 658 mmHg 75%
    06:00 +16°C° 0 mm 2 m/s 658 mmHg 74%
    07:00 +18°C° 0 mm 2 m/s 659 mmHg 67%
    08:00 +20°C° 0 mm 2 m/s 659 mmHg 60%
    09:00 +23°C° 0 mm 2 m/s 660 mmHg 53%
    10:00 +24°C° 0 mm 3 m/s 660 mmHg 51%
    11:00 +24°C° 0 mm 3 m/s 660 mmHg 49%
    12:00 +25°C° 0 mm 3 m/s 660 mmHg 47%
    13:00 +25°C° 0,1 mm 3 m/s 660 mmHg 48%
    14:00 +25°C° 0,1 mm 3 m/s 660 mmHg 48%
    15:00 +24°C° 0,1 mm 3 m/s 660 mmHg 49%
    16:00 +22°C° 0 mm 3 m/s 660 mmHg 55%
    17:00 +21°C° 0 mm 2 m/s 659 mmHg 60%
    18:00 +20°C° 0 mm 2 m/s 659 mmHg 65%
    19:00 +19°C° 0 mm 2 m/s 659 mmHg 70%
    20:00 +18°C° 0 mm 1 m/s 659 mmHg 75%
    21:00 +16°C° 0 mm 1 m/s 659 mmHg 80%
    22:00 +16°C° 0 mm 1 m/s 659 mmHg 80%
    23:00 +16°C° 0 mm 1 m/s 659 mmHg 80%

    Après-demain, 24 Août, Vendredi

    Heure Température Précipitation Vent Pression Humidité
    00:00 +15°C° 0 mm 1 m/s 659 mmHg 80%
    01:00 +15°C° 0 mm 2 m/s 659 mmHg 79%
    02:00 +15°C° 0 mm 2 m/s 659 mmHg 79%
    03:00 +15°C° 0 mm 2 m/s 659 mmHg 79%
    04:00 +15°C° 0 mm 2 m/s 659 mmHg 78%
    05:00 +15°C° 0 mm 2 m/s 659 mmHg 78%
    06:00 +15°C° 0 mm 2 m/s 659 mmHg 78%
    07:00 +17°C° 0 mm 2 m/s 659 mmHg 73%
    08:00 +19°C° 0 mm 3 m/s 660 mmHg 68%
    09:00 +21°C° 0 mm 3 m/s 660 mmHg 63%
    10:00 +21°C° 0 mm 4 m/s 660 mmHg 63%
    11:00 +22°C° 0 mm 4 m/s 660 mmHg 63%
    12:00 +22°C° 0 mm 4 m/s 660 mmHg 63%
    13:00 +22°C° 0,1 mm 4 m/s 660 mmHg 64%
    14:00 +22°C° 0,1 mm 4 m/s 659 mmHg 65%
    15:00 +22°C° 0,1 mm 4 m/s 659 mmHg 65%
    16:00 +21°C° 0,3 mm 4 m/s 659 mmHg 69%
    17:00 +20°C° 0,3 mm 4 m/s 659 mmHg 73%
    18:00 +19°C° 0,3 mm 3 m/s 658 mmHg 77%
    19:00 +18°C° 0,1 mm 3 m/s 658 mmHg 79%
    20:00 +17°C° 0,1 mm 2 m/s 658 mmHg 81%
    21:00 +16°C° 0,1 mm 2 m/s 658 mmHg 83%
    22:00 +15°C° 0 mm 2 m/s 658 mmHg 81%
    23:00 +15°C° 0 mm 2 m/s 658 mmHg 79%

    25 Août, Samedi

    Heure Température Précipitation Vent Pression Humidité
    00:00 +15°C° 0 mm 2 m/s 658 mmHg 78%
    01:00 +15°C° 0 mm 2 m/s 657 mmHg 77%
    02:00 +15°C° 0 mm 1 m/s 657 mmHg 75%
    03:00 +14°C° 0 mm 1 m/s 657 mmHg 74%
    04:00 +15°C° 0 mm 1 m/s 657 mmHg 73%
    05:00 +15°C° 0 mm 1 m/s 657 mmHg 72%
    06:00 +15°C° 0 mm 1 m/s 657 mmHg 71%
    07:00 +17°C° 0 mm 2 m/s 658 mmHg 64%
    08:00 +19°C° 0 mm 2 m/s 658 mmHg 57%
    09:00 +21°C° 0 mm 2 m/s 659 mmHg 51%
    10:00 +22°C° 0,1 mm 3 m/s 659 mmHg 49%
    11:00 +23°C° 0,1 mm 4 m/s 659 mmHg 48%
    12:00 +25°C° 0,1 mm 4 m/s 659 mmHg 47%
    13:00 +25°C° 0,2 mm 4 m/s 659 mmHg 48%
    14:00 +23°C° 0,2 mm 4 m/s 659 mmHg 49%
    15:00 +23°C° 0,2 mm 4 m/s 658 mmHg 51%
    16:00 +22°C° 0,1 mm 4 m/s 658 mmHg 56%
    17:00 +21°C° 0,1 mm 4 m/s 658 mmHg 61%
    18:00 +20°C° 0,1 mm 3 m/s 658 mmHg 66%
    19:00 +18°C° 0,1 mm 3 m/s 658 mmHg 70%
    20:00 +17°C° 0,1 mm 3 m/s 658 mmHg 74%
    21:00 +16°C° 0,1 mm 2 m/s 657 mmHg 78%
    22:00 +16°C° 0 mm 2 m/s 657 mmHg 77%
    23:00 +16°C° 0 mm 2 m/s 657 mmHg 75%

    26 Août, Dimanche

    Heure Température Précipitation Vent Pression Humidité
    00:00 +16°C° 0 mm 2 m/s 657 mmHg 74%
    01:00 +15°C° 0 mm 2 m/s 657 mmHg 72%
    02:00 +15°C° 0 mm 2 m/s 656 mmHg 70%
    03:00 +15°C° 0 mm 2 m/s 656 mmHg 68%
    04:00 +15°C° 0 mm 2 m/s 656 mmHg 65%
    05:00 +15°C° 0 mm 2 m/s 656 mmHg 63%
    06:00 +16°C° 0 mm 2 m/s 656 mmHg 61%
    07:00 +18°C° 0 mm 3 m/s 657 mmHg 53%
    08:00 +21°C° 0 mm 3 m/s 657 mmHg 46%
    09:00 +24°C° 0 mm 3 m/s 658 mmHg 38%
    10:00 +25°C° 0 mm 4 m/s 658 mmHg 38%
    11:00 +26°C° 0 mm 4 m/s 657 mmHg 37%
    12:00 +27°C° 0 mm 5 m/s 657 mmHg 36%
    13:00 +26°C° 0 mm 5 m/s 657 mmHg 39%
    14:00 +26°C° 0 mm 5 m/s 657 mmHg 41%
    15:00 +26°C° 0 mm 5 m/s 656 mmHg 43%
    16:00 +23°C° 0 mm 4 m/s 656 mmHg 49%
    17:00 +22°C° 0 mm 4 m/s 656 mmHg 56%
    18:00 +20°C° 0 mm 3 m/s 655 mmHg 62%
    19:00 +19°C° 0 mm 3 m/s 655 mmHg 65%
    20:00 +18°C° 0 mm 2 m/s 655 mmHg 69%
    21:00 +16°C° 0 mm 2 m/s 655 mmHg 72%
    22:00 +16°C° 0 mm 2 m/s 655 mmHg 70%
    23:00 +16°C° 0 mm 2 m/s 655 mmHg 68%

    27 Août, Lundi

    Heure Température Précipitation Vent Pression Humidité
    00:00 +16°C° 0 mm 2 m/s 654 mmHg 66%
    01:00 +16°C° 0 mm 2 m/s 654 mmHg 64%
    02:00 +16°C° 0 mm 2 m/s 654 mmHg 62%
    03:00 +15°C° 0 mm 2 m/s 654 mmHg 60%
    04:00 +15°C° 0 mm 2 m/s 654 mmHg 59%
    05:00 +16°C° 0 mm 1 m/s 654 mmHg 59%
    06:00 +16°C° 0 mm 1 m/s 654 mmHg 58%
    07:00 +18°C° 0 mm 2 m/s 655 mmHg 53%
    08:00 +20°C° 0 mm 2 m/s 655 mmHg 48%
    09:00 +23°C° 0 mm 2 m/s 656 mmHg 43%
    10:00 +24°C° 0 mm 3 m/s 656 mmHg 43%
    11:00 +24°C° 0 mm 3 m/s 656 mmHg 42%
    12:00 +25°C° 0 mm 4 m/s 656 mmHg 41%
    13:00 +25°C° 0,2 mm 4 m/s 656 mmHg 43%
    14:00 +25°C° 0,2 mm 4 m/s 656 mmHg 45%
    15:00 +23°C° 0,2 mm 4 m/s 656 mmHg 47%
    16:00 +22°C° 0,3 mm 3 m/s 656 mmHg 54%
    17:00 +21°C° 0,3 mm 3 m/s 656 mmHg 60%
    18:00 +19°C° 0,3 mm 2 m/s 656 mmHg 66%
    19:00 +18°C° 0,3 mm 2 m/s 656 mmHg 71%
    20:00 +17°C° 0,3 mm 2 m/s 656 mmHg 76%
    21:00 +16°C° 0,3 mm 1 m/s 656 mmHg 81%
    22:00 +16°C° 0,1 mm 1 m/s 656 mmHg 81%
    23:00 +15°C° 0,1 mm 1 m/s 656 mmHg 81%
    Voir plus